Weather History for KMWT - December, 2011

Change the Weather History Date:

Saturday, December 10, 2011

  Actual Average (KHOT) Record (KHOT)
Temperature  
Mean Temperature 36 °F -  
Max Temperature 48 °F 54 °F 74 °F (1970)
Min Temperature 24 °F 34 °F 16 °F (1977)
Degree Days  
Heating Degree Days 29    
Moisture  
Dew Point 27 °F    
Average Humidity 79    
Maximum Humidity 96    
Minimum Humidity 46    
Precipitation  
Precipitation 0.00 in - - ()
Sea Level Pressure  
Sea Level Pressure 30.52 in    
Wind  
Wind Speed 0 mph (ESE)    
Max Wind Speed 5 mph    
Max Gust Speed -    
Visibility 7 miles    
Events      
Averages and records for this station are not official NWS values.
T = Trace of Precipitation, MM = Missing Value Source: NWS Daily Summary

Daily Weather History Graph

Daily Weather History Graph

Search for Another Location

Airport or City:

Trip Planner

Search our weather history database for the weather conditions in past years. The results will help you decide how hot, cold, wet, or windy it might be!

Date:

Astronomy

Dec. 10, 2011 Rise Set
Actual Time 7:10 AM CST 5:03 PM CST
Civil Twilight 6:42 AM CST 5:31 PM CST
Nautical Twilight 6:10 AM CST 6:03 PM CST
Astronomical Twilight 5:40 AM CST 6:33 PM CST
Moon 5:19 PM CST (12/10) 7:09 AM CST (12/10)
Length of Visible Light 10h 49m
Length of Day
9h 53m
Full, 100% of the Moon is Illuminated
Dec 10
Full
Dec 17
Last Quarter
Dec 24
New
Jan 1
First Quarter
Jan 9
Full

Hourly Weather History & Observations

Time (CST) Temp. Windchill Dew Point Humidity Pressure Visibility Wind Dir Wind Speed Gust Speed Precip Events Conditions
12:53 AM 27.0 °F - 26.1 °F 96% 30.48 in 4.0 mi Calm Calm - N/A   Clear
1:53 AM 26.1 °F - 25.0 °F 96% 30.49 in 6.0 mi Calm Calm - N/A   Clear
2:53 AM 26.1 °F - 25.0 °F 96% 30.51 in 6.0 mi Calm Calm - N/A   Clear
3:53 AM 25.0 °F - 23.0 °F 92% 30.51 in 5.0 mi Calm Calm - N/A   Clear
4:53 AM 25.0 °F - 23.0 °F 92% 30.53 in 6.0 mi Calm Calm - N/A   Clear
5:53 AM 25.0 °F - 23.0 °F 92% 30.54 in 6.0 mi Calm Calm - N/A   Clear
6:53 AM 25.0 °F - 23.0 °F 92% 30.57 in 5.0 mi Calm Calm - N/A   Clear
7:53 AM 24.1 °F - 23.0 °F 96% 30.59 in 4.0 mi Calm Calm - N/A   Clear
8:53 AM 30.0 °F - 28.9 °F 96% 30.61 in 4.0 mi Calm Calm - N/A   Clear
9:53 AM 37.0 °F - 30.9 °F 79% 30.61 in 10.0 mi Calm Calm - N/A   Clear
10:53 AM 39.0 °F 35.7 °F 28.9 °F 67% 30.60 in 10.0 mi East 4.6 mph - N/A   Clear
11:53 AM 42.1 °F 40.2 °F 28.9 °F 60% 30.57 in 10.0 mi SE 3.5 mph - N/A   Clear
12:53 PM 45.0 °F - 28.9 °F 53% 30.53 in 10.0 mi Calm Calm - N/A   Clear
1:53 PM 48.9 °F - 28.9 °F 46% 30.51 in 10.0 mi Calm Calm - N/A   Clear
2:53 PM 48.9 °F - 28.9 °F 46% 30.49 in 10.0 mi ESE 4.6 mph - N/A   Clear
3:53 PM 48.0 °F - 28.9 °F 48% 30.49 in 10.0 mi Calm Calm - N/A   Clear
4:53 PM 44.1 °F - 28.9 °F 55% 30.49 in 10.0 mi Calm Calm - N/A   Clear
5:53 PM 37.9 °F - 30.0 °F 73% 30.50 in 10.0 mi Calm Calm - N/A   Clear
6:53 PM 36.0 °F - 28.9 °F 76% 30.50 in 10.0 mi Calm Calm - N/A   Clear
7:02 PM 35.6 °F - 30.2 °F 81% 30.45 in 1.8 mi Calm Calm - N/A   Haze
7:10 PM 33.8 °F - 28.4 °F 81% 30.45 in 3.0 mi Calm Calm - N/A   Haze
7:53 PM 32.0 °F - 28.0 °F 85% 30.50 in 10.0 mi Calm Calm - N/A   Clear
8:53 PM 30.0 °F - 27.0 °F 88% 30.51 in 7.0 mi Calm Calm - N/A   Clear
9:53 PM 28.0 °F - 26.1 °F 92% 30.52 in 7.0 mi Calm Calm - N/A   Clear
10:53 PM 27.0 °F - 25.0 °F 92% 30.53 in 8.0 mi Calm Calm - N/A   Clear
11:53 PM 27.0 °F - 26.1 °F 96% 30.52 in 7.0 mi Calm Calm - N/A   Clear